Wind_Speed
2 6 8 3 4 3 4 4 3 4 5 4 9 5 8 8 2 3 23 27 26 25 24 21 20 20 20 19 17 17 16 14 14 14 14 13 12 12 12 11 10 10 10 10 10 9 9 9 10
4 2 7 3 4 3 4 4 10 5 12 20 16 12 7 3 9 20 32 22 23 25 23 21 21 20 20 19 17 16 15 13 13 13 14 13 13 14 14 14 13 11 10 12 12 10 10 11 10
2 4 5 3 2 4 4 3 10 13 14 8 5 11 5 9 16 33 23 24 27 23 22 21 20 20 20 19 18 16 15 13 14 14 14 15 14 14 15 15 15 14 15 15 13 13 13 13 10
3 5 6 3 4 4 7 5 14 14 15 13 18 8 12 18 27 24 23 26 23 21 20 20 20 20 19 19 18 17 16 14 15 15 16 16 16 16 16 16 14 15 16 17 16 16 15 14 12
1 5 1 3 5 3 6 16 25 6 7 14 16 10 6 16 21 24 24 21 19 21 18 19 19 19 19 19 18 17 16 16 16 16 17 16 16 16 16 15 15 15 15 15 15 16 15 14 12
3 3 2 2 5 4 8 17 23 19 21 21 16 12 4 21 25 26 21 19 20 18 17 17 18 19 19 19 18 17 17 17 17 17 16 16 17 16 15 14 14 14 14 14 14 15 14 13 11
4 2 2 1 2 11 4 29 20 24 23 12 24 6 17 28 26 27 23 20 17 17 19 18 20 20 19 19 18 18 17 17 16 16 16 16 16 15 14 13 13 13 14 14 14 14 11 9 8
5 3 3 5 2 5 14 9 28 30 11 27 30 9 17 33 30 28 24 21 17 15 18 19 19 20 20 20 18 18 17 17 17 15 16 16 15 15 15 15 15 15 15 15 14 12 7 7 7
3 2 4 3 1 3 21 18 22 20 29 12 18 22 31 33 30 32 27 22 18 16 19 18 18 18 18 18 18 18 18 18 16 15 17 16 16 17 17 18 16 16 15 14 11 9 8 6 4
3 2 6 8 1 4 8 18 17 15 18 15 22 27 31 32 34 33 31 26 21 19 18 18 18 17 18 19 17 16 18 17 17 17 18 20 20 18 17 15 14 14 13 12 8 6 6 7 8
6 4 8 10 24 8 8 11 8 19 8 32 34 38 33 32 32 30 30 25 17 17 18 15 15 17 17 16 16 16 18 18 18 21 22 21 20 16 14 13 13 13 12 16 9 4 8 7 13
2 18 22 18 20 16 13 10 5 12 12 31 35 37 36 29 27 27 28 28 23 20 16 18 15 17 22 15 14 16 17 19 21 23 22 19 16 15 11 11 11 10 10 9 5 5 7 5 4
7 15 13 17 14 8 24 19 11 15 30 33 37 35 35 26 26 22 24 26 18 19 18 19 17 18 20 12 16 16 18 17 21 24 20 18 16 13 11 8 11 9 7 5 6 2 3 3 3
14 14 16 25 10 9 22 8 20 13 26 33 34 33 32 26 29 23 24 28 23 19 17 21 19 17 18 14 15 15 16 16 19 22 17 19 18 15 13 9 10 8 8 7 4 1 7 6 8
6 5 4 7 6 5 19 6 7 11 21 22 31 30 30 27 28 29 25 31 27 23 18 23 22 18 17 15 16 15 13 15 16 16 16 17 19 18 20 19 16 10 11 9 7 7 4 5 8
5 3 4 5 7 5 14 1 6 4 10 9 21 30 30 30 28 30 27 30 27 26 24 21 25 22 19 22 21 16 16 17 17 14 13 15 24 22 22 20 18 18 14 13 12 10 10 7 7
4 2 1 4 0 3 7 5 8 9 4 11 12 24 30 31 30 29 28 31 29 30 30 28 28 26 24 27 24 22 18 18 18 16 16 14 22 23 20 19 20 14 13 13 12 12 14 10 8
5 2 4 4 4 6 3 4 5 17 5 11 11 14 25 31 33 29 30 28 29 30 30 30 28 29 27 26 26 29 24 25 21 17 20 17 16 17 22 18 20 17 15 15 16 14 13 10 7
3 4 6 6 8 4 5 7 10 16 16 16 14 15 24 21 30 29 33 30 29 30 32 31 32 33 32 31 25 31 33 28 26 24 21 19 15 16 15 20 21 17 18 16 14 15 12 9 9
2 2 9 9 8 5 4 5 7 12 12 20 7 20 26 27 24 25 36 33 33 33 34 33 34 35 34 32 25 22 31 37 34 28 25 24 24 19 18 19 22 23 21 19 18 17 18 17 14
6 6 6 6 10 7 6 6 4 8 15 21 26 15 24 28 28 27 39 38 35 35 37 36 35 33 32 31 25 21 19 29 36 34 30 24 27 24 26 25 22 23 27 23 20 19 21 18 19
4 12 8 12 5 5 7 3 6 7 12 16 26 26 30 30 32 31 39 40 38 37 37 37 32 31 30 29 28 26 24 29 32 35 30 27 27 29 32 28 25 23 24 21 16 20 19 16 19
7 3 4 8 5 6 4 4 5 6 8 14 19 28 30 31 36 38 36 42 41 37 39 38 34 30 31 29 30 28 26 27 28 28 28 29 30 32 36 31 26 25 23 22 24 21 20 20 18
2 4 9 5 3 4 7 6 5 6 8 5 8 17 17 22 32 33 33 39 38 39 36 39 38 33 33 32 28 32 28 30 35 31 27 30 28 32 36 32 32 29 22 25 22 20 21 21 19
8 6 3 5 4 6 6 4 7 6 7 8 11 16 20 17 18 25 35 38 41 33 33 40 41 38 35 32 31 32 33 33 37 33 32 28 27 28 30 29 28 23 24 20 19 19 21 21 20
1 6 5 3 3 4 4 5 5 8 21 17 12 16 19 19 17 18 21 31 35 36 38 35 43 39 41 37 36 33 39 36 38 35 36 32 32 28 23 23 23 22 24 23 24 21 23 22 22
3 1 5 4 1 4 3 3 5 2 3 4 11 20 21 20 16 15 13 13 19 30 32 34 39 36 39 41 42 37 44 42 42 42 38 24 32 31 26 24 20 25 28 23 20 23 20 17 16
6 3 4 4 2 3 6 3 5 6 8 6 5 22 20 18 18 16 12 12 15 19 24 33 36 35 35 38 36 37 49 48 48 47 43 32 27 25 29 28 21 19 19 20 17 15 14 14 12
2 3 5 4 5 4 2 6 8 10 9 9 9 22 24 24 20 15 12 11 12 15 19 22 25 27 28 30 33 36 48 52 46 44 38 29 21 19 18 15 10 8 12 14 14 14 14 11 13
4 0 2 5 6 1 4 6 6 4 6 21 20 25 22 19 15 11 6 4 7 9 12 15 16 19 24 27 30 32 34 42 47 42 39 26 21 10 11 13 15 6 10 12 14 15 17 13 16
Wind_Direction
288 11 23 0 64 38 337 348 185 89 97 97 103 133 123 62 99 183 148 160 167 163 161 161 158 160 160 158 145 145 138 137 140 142 145 141 139 134 132 127 127 138 146 152 144 141 132 125 119
256 336 17 49 67 65 306 351 77 88 126 112 91 104 73 88 117 142 157 168 175 166 163 165 164 162 161 159 155 151 146 141 140 139 139 136 133 128 123 118 117 119 131 131 129 130 125 116 120
52 34 45 69 137 189 190 204 123 135 133 139 103 53 75 106 148 146 156 170 170 165 162 162 162 162 159 160 161 156 153 146 143 141 138 135 133 130 127 122 114 110 114 122 126 117 114 113 124
61 28 42 53 257 250 172 167 123 116 96 88 108 75 89 126 148 147 141 155 159 161 164 164 164 159 159 159 162 160 156 151 147 143 139 135 136 131 127 124 123 115 111 112 114 112 113 116 122
26 79 85 289 262 191 141 155 124 104 91 121 117 120 91 159 145 145 147 152 165 162 165 168 165 160 160 158 159 158 153 152 151 144 141 139 139 135 134 132 126 119 113 111 110 109 106 107 114
37 45 347 324 285 142 166 157 122 115 117 110 103 104 96 158 156 154 160 159 154 156 163 168 168 163 160 159 157 154 154 154 153 146 144 143 140 138 137 137 131 121 114 110 107 104 105 103 125
128 59 286 260 315 85 142 133 128 134 138 134 133 115 144 157 157 162 170 164 160 165 163 169 174 167 162 162 159 158 157 158 156 152 154 147 144 141 141 139 131 122 115 111 105 102 104 112 112
119 106 268 258 264 43 107 129 141 144 160 144 145 158 170 166 170 173 178 170 168 172 176 170 178 171 166 163 160 160 160 161 157 155 151 148 146 143 141 134 124 118 115 113 113 115 127 101 87
56 100 239 283 266 91 113 116 152 150 142 160 183 166 154 170 180 176 174 168 166 169 174 172 180 174 167 164 163 165 166 162 161 155 151 147 141 138 133 129 123 118 109 109 117 126 96 75 70
99 259 226 196 238 135 131 137 141 120 153 112 122 149 150 163 175 175 175 172 166 156 163 174 179 178 173 168 168 167 166 166 161 156 156 144 137 132 128 127 124 120 110 109 109 95 79 73 46
4 260 294 298 130 111 250 148 133 118 130 148 145 154 161 166 167 182 184 183 175 164 162 160 173 174 174 166 166 170 169 167 162 157 153 146 142 142 133 133 137 122 110 101 126 114 107 104 53
287 255 256 311 168 185 157 138 114 145 169 159 154 158 165 169 178 181 192 190 183 180 184 165 164 166 158 153 167 166 173 172 168 166 164 161 152 152 147 140 136 137 117 106 98 120 120 94 45
271 270 323 143 179 122 87 74 53 115 148 154 154 162 169 176 179 187 195 192 198 196 199 185 176 165 165 157 163 162 164 169 169 171 172 171 167 165 169 157 165 152 149 130 140 162 170 145 119
258 290 305 101 251 101 93 82 101 99 148 154 160 169 177 185 190 191 196 194 202 199 207 199 190 183 174 172 176 171 169 163 175 185 181 177 170 178 188 197 186 168 160 151 190 53 166 160 141
274 304 261 82 341 79 86 22 91 80 155 167 170 174 187 196 197 202 200 202 200 205 203 200 198 193 190 191 193 200 209 201 185 181 194 206 188 188 196 207 205 205 194 197 223 208 177 163 167
349 49 54 316 51 53 49 13 8 96 147 176 190 184 193 202 205 208 210 207 203 204 202 204 200 200 201 190 197 202 205 213 206 198 206 207 206 204 201 203 204 191 206 202 223 216 187 167 162
15 14 121 306 260 158 138 190 267 229 214 213 186 206 204 209 213 212 209 210 207 205 202 207 208 208 201 195 204 198 203 208 211 222 216 213 210 213 213 199 193 204 206 210 225 218 233 202 181
217 259 265 208 204 124 147 194 267 263 272 247 211 198 217 216 213 214 208 209 209 208 211 211 214 210 210 211 212 207 206 204 211 225 230 226 224 232 229 218 209 210 211 220 229 230 211 192 191
167 245 242 261 204 121 216 214 234 240 250 257 196 207 216 217 218 215 204 207 207 209 211 214 214 217 223 226 235 226 217 212 209 215 224 229 225 233 226 224 212 211 211 231 232 222 229 229 210
231 232 266 281 167 116 140 278 225 216 251 240 218 202 208 223 222 222 205 208 212 216 218 215 220 222 228 230 234 235 230 227 219 217 224 232 232 235 233 224 220 223 226 224 230 233 232 223 229
207 219 246 225 136 42 106 329 238 236 253 266 264 245 223 216 218 223 207 211 214 218 218 221 226 229 235 235 231 226 229 221 217 218 221 231 229 234 236 222 219 226 227 234 239 233 229 249 231
267 219 246 95 129 190 171 255 270 228 240 249 259 257 248 233 222 227 216 212 218 226 224 225 229 236 240 240 231 228 223 214 214 213 219 225 231 236 229 227 228 232 234 235 242 237 235 229 236
233 267 132 187 178 112 171 103 268 150 254 255 255 248 242 233 229 225 228 220 222 227 227 225 228 237 239 238 236 231 228 219 205 211 222 232 244 245 223 224 231 238 248 246 242 238 231 232 234
319 35 32 51 56 18 218 145 268 183 197 184 216 198 200 215 227 229 224 222 224 224 235 228 230 237 237 234 235 231 228 220 212 218 229 234 236 227 218 230 222 240 235 243 241 239 238 242 243
60 65 355 359 4 218 196 94 229 205 192 180 185 152 157 162 184 212 218 219 218 228 235 230 230 235 232 237 235 234 229 224 219 225 224 226 225 224 216 223 241 236 235 246 242 240 244 250 251
339 137 148 261 220 281 82 216 252 182 187 184 182 180 139 129 139 166 195 214 219 238 234 229 228 235 237 240 232 242 233 226 225 228 230 240 239 233 231 232 230 242 246 241 235 238 247 247 253
291 356 188 124 230 29 270 1 5 351 183 174 199 175 151 134 127 138 157 183 215 224 237 244 232 242 242 244 232 248 233 223 223 222 225 252 247 249 252 243 247 270 261 255 232 263 254 252 242
161 189 19 13 24 323 329 310 221 210 209 159 154 161 146 136 131 133 148 178 205 222 234 235 237 250 247 251 251 251 235 229 224 226 234 262 242 239 253 248 260 253 249 241 241 225 213 215 214
351 350 47 114 133 166 200 265 213 195 202 173 142 145 136 127 131 133 148 169 193 214 227 236 247 257 261 257 266 251 241 232 227 225 231 259 233 237 236 237 243 217 233 232 215 213 225 226 219
161 69 114 109 276 229 146 278 349 221 146 137 139 139 147 147 143 140 149 197 223 221 220 235 256 254 259 259 259 257 255 240 230 225 244 238 233 234 246 219 208 237 238 227 225 219 223 227 208
Height
1521 1521 1517 1516 1527 1526 1529 1517 1503 1504 1511 1513 1513 1513 1517 1522 1524 1537 1530 1533 1538 1541 1544 1548 1550 1552 1554 1557 1559 1561 1562 1564 1566 1567 1567 1569 1571 1572 1574 1575 1576 1576 1577 1577 1580 1579 1580 1582 1582
1520 1521 1519 1519 1534 1541 1532 1510 1508 1505 1509 1512 1513 1516 1518 1526 1526 1527 1531 1535 1539 1541 1545 1548 1550 1552 1554 1557 1559 1561 1563 1565 1566 1567 1568 1570 1571 1573 1574 1575 1576 1576 1577 1578 1580 1580 1581 1583 1583
1520 1518 1518 1525 1535 1543 1532 1511 1506 1508 1509 1510 1514 1517 1520 1526 1526 1527 1532 1534 1539 1542 1545 1548 1550 1552 1554 1556 1559 1561 1563 1565 1566 1567 1569 1571 1572 1574 1575 1577 1577 1578 1578 1579 1580 1580 1583 1583 1583
1524 1520 1523 1531 1532 1516 1512 1508 1507 1511 1515 1511 1514 1522 1525 1527 1528 1529 1532 1536 1540 1543 1546 1548 1550 1552 1554 1556 1558 1560 1562 1564 1566 1568 1570 1572 1573 1575 1576 1578 1579 1579 1580 1581 1582 1583 1584 1584 1584
1524 1526 1531 1530 1523 1512 1508 1504 1510 1509 1512 1516 1516 1525 1527 1531 1532 1533 1535 1539 1541 1543 1546 1548 1550 1553 1555 1557 1559 1561 1562 1564 1566 1568 1571 1572 1574 1575 1577 1579 1580 1581 1582 1583 1584 1585 1587 1587 1587
1526 1528 1535 1532 1518 1505 1505 1507 1509 1513 1516 1520 1524 1526 1532 1531 1533 1535 1538 1541 1542 1543 1546 1548 1551 1553 1556 1558 1560 1562 1563 1565 1567 1569 1571 1573 1574 1576 1577 1579 1581 1582 1583 1585 1586 1588 1588 1587 1586
1527 1535 1536 1529 1512 1512 1506 1509 1510 1514 1519 1522 1522 1528 1535 1535 1536 1538 1540 1543 1543 1545 1546 1549 1552 1554 1557 1559 1560 1562 1563 1565 1567 1569 1572 1574 1575 1576 1578 1580 1582 1583 1584 1585 1587 1588 1588 1586 1585
1530 1532 1531 1524 1518 1515 1504 1506 1509 1512 1519 1521 1522 1526 1531 1534 1537 1540 1542 1545 1545 1546 1547 1549 1552 1554 1556 1558 1561 1562 1564 1566 1567 1569 1572 1574 1575 1577 1579 1580 1582 1584 1584 1585 1588 1588 1586 1586 1586
1532 1536 1537 1524 1515 1512 1505 1507 1512 1511 1515 1519 1520 1520 1525 1531 1536 1540 1543 1545 1546 1547 1548 1550 1552 1555 1557 1559 1561 1562 1564 1566 1568 1570 1572 1574 1575 1577 1580 1581 1582 1584 1585 1585 1587 1586 1586 1586 1585
1529 1524 1520 1510 1508 1507 1508 1508 1511 1515 1519 1521 1521 1526 1529 1532 1535 1538 1541 1543 1545 1545 1547 1549 1552 1554 1556 1558 1560 1562 1565 1567 1569 1571 1572 1574 1575 1578 1581 1583 1583 1584 1585 1586 1586 1585 1585 1585 1583
1531 1530 1512 1509 1512 1514 1512 1511 1512 1516 1522 1517 1519 1525 1529 1533 1535 1537 1540 1542 1543 1546 1547 1549 1551 1554 1556 1559 1560 1561 1563 1565 1568 1570 1573 1574 1576 1578 1580 1582 1583 1584 1586 1587 1586 1585 1585 1584 1581
1533 1522 1519 1512 1511 1508 1507 1510 1513 1514 1517 1517 1519 1523 1529 1532 1534 1535 1538 1541 1543 1546 1548 1549 1552 1553 1556 1558 1560 1561 1562 1564 1566 1569 1572 1573 1575 1577 1578 1581 1582 1584 1586 1587 1587 1585 1585 1585 1583
1523 1517 1514 1508 1509 1510 1509 1514 1519 1516 1518 1521 1523 1527 1531 1534 1535 1536 1537 1538 1541 1544 1547 1549 1552 1554 1556 1558 1559 1561 1563 1565 1567 1569 1570 1572 1574 1576 1577 1579 1581 1583 1584 1586 1585 1585 1584 1584 1583
1514 1517 1517 1510 1513 1512 1508 1515 1513 1523 1523 1523 1523 1527 1529 1530 1532 1534 1536 1539 1538 1541 1546 1549 1552 1554 1554 1557 1559 1562 1563 1565 1567 1569 1570 1571 1572 1573 1576 1577 1580 1582 1583 1584 1584 1584 1583 1583 1582
1516 1517 1513 1512 1513 1511 1509 1522 1522 1524 1526 1527 1524 1525 1528 1529 1530 1530 1532 1534 1537 1538 1542 1545 1549 1552 1553 1556 1559 1561 1563 1565 1566 1567 1569 1571 1572 1572 1574 1576 1577 1579 1581 1582 1582 1582 1582 1583 1583
1520 1519 1526 1515 1512 1515 1517 1535 1524 1525 1523 1525 1526 1523 1525 1527 1527 1528 1530 1533 1536 1538 1539 1541 1545 1548 1551 1553 1555 1558 1561 1563 1565 1567 1568 1568 1570 1572 1573 1574 1575 1577 1577 1578 1579 1580 1579 1580 1580
1527 1535 1533 1526 1514 1514 1516 1528 1514 1516 1516 1516 1519 1523 1522 1522 1524 1526 1528 1529 1532 1534 1535 1538 1540 1543 1548 1552 1555 1556 1557 1560 1563 1565 1566 1568 1569 1569 1571 1572 1574 1575 1574 1576 1577 1577 1576 1578 1578
1534 1531 1525 1526 1514 1509 1514 1517 1507 1508 1513 1516 1517 1517 1516 1517 1520 1523 1526 1527 1530 1531 1533 1535 1537 1539 1544 1549 1552 1555 1556 1558 1560 1562 1564 1566 1567 1568 1569 1570 1571 1571 1573 1573 1574 1575 1575 1575 1576
1521 1525 1525 1512 1506 1507 1512 1514 1509 1509 1512 1511 1510 1510 1512 1516 1518 1519 1522 1523 1525 1527 1528 1531 1534 1536 1539 1543 1547 1550 1552 1554 1556 1558 1561 1562 1563 1564 1564 1566 1569 1569 1570 1571 1571 1572 1573 1574 1575
1522 1527 1524 1508 1499 1506 1516 1517 1510 1511 1508 1508 1510 1509 1511 1514 1516 1517 1518 1520 1520 1520 1523 1525 1527 1530 1531 1534 1537 1542 1545 1548 1552 1554 1555 1557 1559 1560 1561 1560 1563 1564 1565 1566 1568 1568 1569 1570 1571
1519 1523 1513 1507 1505 1510 1518 1527 1517 1511 1510 1508 1506 1508 1507 1508 1510 1512 1514 1513 1515 1516 1518 1521 1523 1526 1528 1530 1535 1536 1539 1541 1544 1547 1550 1551 1553 1555 1555 1554 1554 1556 1559 1561 1562 1563 1564 1565 1566
1524 1496 1503 1502 1514 1536 1512 1549 1524 1513 1509 1509 1502 1502 1501 1503 1507 1508 1509 1510 1511 1513 1516 1519 1525 1526 1527 1528 1529 1531 1532 1534 1536 1540 1543 1545 1547 1548 1548 1549 1550 1552 1553 1554 1556 1558 1559 1560 1562
1499 1486 1491 1490 1507 1515 1518 1533 1520 1512 1514 1502 1496 1496 1496 1497 1500 1504 1506 1506 1509 1511 1512 1517 1519 1519 1522 1524 1526 1527 1528 1529 1532 1535 1536 1538 1539 1539 1542 1542 1544 1548 1549 1551 1550 1550 1552 1554 1556
1485 1491 1497 1506 1517 1543 1518 1523 1521 1516 1502 1498 1494 1492 1492 1493 1495 1499 1503 1505 1507 1510 1510 1512 1514 1512 1516 1519 1519 1520 1522 1524 1525 1527 1527 1528 1528 1530 1532 1538 1540 1542 1541 1544 1544 1546 1548 1548 1550
1491 1511 1543 1545 1541 1545 1513 1521 1511 1494 1491 1488 1489 1489 1492 1492 1492 1493 1496 1499 1503 1504 1505 1507 1508 1508 1509 1510 1512 1513 1516 1519 1521 1522 1521 1523 1524 1526 1528 1530 1532 1533 1536 1538 1538 1542 1545 1545 1546
1492 1507 1539 1546 1551 1529 1511 1525 1504 1482 1483 1484 1484 1487 1490 1490 1490 1491 1492 1494 1497 1497 1496 1498 1500 1502 1502 1504 1506 1507 1512 1513 1516 1517 1517 1518 1521 1522 1522 1524 1525 1526 1530 1529 1533 1536 1538 1540 1541
1493 1509 1497 1520 1525 1531 1526 1503 1490 1487 1484 1484 1485 1487 1490 1490 1491 1492 1494 1495 1496 1495 1495 1494 1497 1497 1498 1498 1500 1500 1503 1506 1507 1511 1512 1514 1518 1518 1518 1518 1520 1521 1524 1524 1527 1530 1533 1536 1537
1487 1486 1517 1527 1541 1538 1533 1517 1519 1495 1491 1488 1487 1487 1491 1492 1492 1493 1494 1495 1495 1496 1495 1494 1496 1494 1495 1495 1495 1496 1498 1500 1501 1505 1507 1510 1512 1514 1516 1517 1518 1516 1517 1520 1522 1526 1529 1530 1533
1494 1502 1504 1515 1530 1546 1554 1529 1486 1487 1484 1486 1489 1489 1492 1493 1493 1493 1493 1494 1493 1493 1493 1494 1493 1492 1491 1489 1488 1488 1488 1489 1495 1500 1500 1506 1506 1507 1510 1512 1515 1515 1517 1519 1520 1523 1527 1528 1527
1488 1494 1509 1532 1528 1530 1534 1523 1478 1477 1481 1483 1489 1490 1491 1492 1493 1493 1491 1491 1491 1490 1490 1490 1489 1488 1486 1483 1481 1481 1482 1485 1491 1490 1488 1501 1507 1503 1507 1511 1513 1514 1515 1517 1519 1519 1524 1527 1527